When you browse on this site, cookies collect data to enhance your experience and personalize the content and advertising you see.
Visit our Privacy Policy to learn more. By continuing to use the site, you agree to this use of cookies and data.
  • In Sweden
  • List of Countries
  • For 7 days
  • Water Temperature
  • Satellite Maps
  • Weather Map
  • Weather Widgets
  • user-avatar
    Login

    Hourly Weather Ordino

    Today, 19 July, Friday

    Time Temperature Precipitation Wind Pressure Humidity
    00:00 +11°C° 0 mm 0 mps 634 mmHg 94%
    01:00 +11°C° 0 mm 0 mps 634 mmHg 93%
    02:00 +12°C° 0 mm 1 mps 634 mmHg 93%
    03:00 +12°C° 0 mm 1 mps 634 mmHg 92%
    04:00 +13°C° 0 mm 1 mps 634 mmHg 88%
    05:00 +14°C° 0 mm 1 mps 635 mmHg 84%
    06:00 +14°C° 0 mm 1 mps 635 mmHg 80%
    07:00 +18°C° 0 mm 1 mps 636 mmHg 69%
    08:00 +20°C° 0 mm 1 mps 637 mmHg 58%
    09:00 +22°C° 0 mm 1 mps 638 mmHg 47%
    10:00 +23°C° 0 mm 2 mps 638 mmHg 44%
    11:00 +24°C° 0 mm 2 mps 638 mmHg 41%
    12:00 +26°C° 0 mm 2 mps 638 mmHg 39%
    13:00 +26°C° 0 mm 2 mps 638 mmHg 39%
    14:00 +26°C° 0 mm 2 mps 637 mmHg 39%
    15:00 +26°C° 0 mm 2 mps 637 mmHg 40%
    16:00 +25°C° 0 mm 2 mps 637 mmHg 47%
    17:00 +24°C° 0 mm 2 mps 636 mmHg 54%
    18:00 +23°C° 0 mm 2 mps 635 mmHg 60%
    19:00 +20°C° 0 mm 1 mps 635 mmHg 67%
    20:00 +18°C° 0 mm 1 mps 634 mmHg 73%
    21:00 +15°C° 0 mm 1 mps 634 mmHg 79%
    22:00 +15°C° 0 mm 1 mps 634 mmHg 78%
    23:00 +15°C° 0 mm 1 mps 634 mmHg 77%

    Tomorrow, 20 July, Saturday

    Time Temperature Precipitation Wind Pressure Humidity
    00:00 +15°C° 0 mm 1 mps 634 mmHg 75%
    01:00 +15°C° 0 mm 1 mps 634 mmHg 74%
    02:00 +16°C° 0 mm 1 mps 634 mmHg 72%
    03:00 +16°C° 0 mm 1 mps 634 mmHg 70%
    04:00 +18°C° 0 mm 1 mps 634 mmHg 70%
    05:00 +18°C° 0 mm 1 mps 635 mmHg 69%
    06:00 +19°C° 0 mm 1 mps 635 mmHg 68%
    07:00 +20°C° 0 mm 2 mps 636 mmHg 59%
    08:00 +23°C° 0 mm 2 mps 637 mmHg 51%
    09:00 +25°C° 0 mm 2 mps 638 mmHg 42%
    10:00 +26°C° 0 mm 2 mps 638 mmHg 40%
    11:00 +27°C° 0 mm 2 mps 639 mmHg 38%
    12:00 +28°C° 0 mm 2 mps 639 mmHg 36%
    13:00 +28°C° 0 mm 2 mps 639 mmHg 36%
    14:00 +28°C° 0 mm 2 mps 639 mmHg 37%
    15:00 +28°C° 0 mm 3 mps 638 mmHg 37%
    16:00 +26°C° 0.2 mm 2 mps 638 mmHg 46%
    17:00 +25°C° 0.2 mm 2 mps 638 mmHg 55%
    18:00 +24°C° 0.2 mm 1 mps 638 mmHg 64%
    19:00 +22°C° 0.1 mm 1 mps 638 mmHg 70%
    20:00 +20°C° 0.1 mm 1 mps 637 mmHg 76%
    21:00 +18°C° 0.1 mm 1 mps 637 mmHg 82%
    22:00 +16°C° 0 mm 1 mps 637 mmHg 82%
    23:00 +16°C° 0 mm 1 mps 637 mmHg 83%

    Day after tomorrow, 21 July, Sunday

    Time Temperature Precipitation Wind Pressure Humidity
    00:00 +16°C° 0 mm 1 mps 637 mmHg 83%
    01:00 +16°C° 0 mm 1 mps 637 mmHg 81%
    02:00 +16°C° 0 mm 1 mps 637 mmHg 80%
    03:00 +16°C° 0 mm 1 mps 637 mmHg 78%
    04:00 +16°C° 0 mm 1 mps 637 mmHg 73%
    05:00 +18°C° 0 mm 1 mps 638 mmHg 68%
    06:00 +19°C° 0 mm 1 mps 638 mmHg 64%
    07:00 +20°C° 0 mm 2 mps 639 mmHg 55%
    08:00 +24°C° 0 mm 2 mps 640 mmHg 46%
    09:00 +26°C° 0 mm 2 mps 642 mmHg 37%
    10:00 +27°C° 0 mm 2 mps 642 mmHg 35%
    11:00 +28°C° 0 mm 2 mps 642 mmHg 32%
    12:00 +30°C° 0 mm 2 mps 642 mmHg 30%
    13:00 +29°C° 0 mm 2 mps 642 mmHg 31%
    14:00 +29°C° 0 mm 2 mps 642 mmHg 32%
    15:00 +29°C° 0 mm 2 mps 641 mmHg 33%
    16:00 +28°C° 0 mm 2 mps 641 mmHg 41%
    17:00 +27°C° 0 mm 2 mps 640 mmHg 48%
    18:00 +25°C° 0 mm 1 mps 640 mmHg 56%
    19:00 +23°C° 0 mm 1 mps 639 mmHg 62%
    20:00 +21°C° 0 mm 1 mps 639 mmHg 67%
    21:00 +19°C° 0 mm 1 mps 639 mmHg 72%
    22:00 +19°C° 0 mm 1 mps 639 mmHg 70%
    23:00 +19°C° 0 mm 1 mps 639 mmHg 69%

    22 July, Monday

    Time Temperature Precipitation Wind Pressure Humidity
    00:00 +18°C° 0 mm 1 mps 639 mmHg 67%
    01:00 +18°C° 0 mm 1 mps 638 mmHg 63%
    02:00 +18°C° 0 mm 1 mps 638 mmHg 59%
    03:00 +18°C° 0 mm 1 mps 638 mmHg 54%
    04:00 +19°C° 0 mm 1 mps 638 mmHg 53%
    05:00 +19°C° 0 mm 1 mps 639 mmHg 52%
    06:00 +20°C° 0 mm 1 mps 639 mmHg 50%
    07:00 +23°C° 0 mm 2 mps 640 mmHg 43%
    08:00 +25°C° 0 mm 2 mps 641 mmHg 37%
    09:00 +28°C° 0 mm 2 mps 642 mmHg 30%
    10:00 +28°C° 0 mm 2 mps 642 mmHg 28%
    11:00 +29°C° 0 mm 3 mps 642 mmHg 27%
    12:00 +30°C° 0 mm 3 mps 642 mmHg 25%
    13:00 +30°C° 0 mm 3 mps 642 mmHg 26%
    14:00 +30°C° 0 mm 3 mps 641 mmHg 26%
    15:00 +30°C° 0 mm 3 mps 641 mmHg 27%
    16:00 +28°C° 0 mm 3 mps 640 mmHg 33%
    17:00 +27°C° 0 mm 2 mps 640 mmHg 40%
    18:00 +26°C° 0 mm 2 mps 639 mmHg 47%
    19:00 +24°C° 0 mm 2 mps 639 mmHg 50%
    20:00 +22°C° 0 mm 1 mps 638 mmHg 53%
    21:00 +20°C° 0 mm 1 mps 638 mmHg 56%
    22:00 +19°C° 0 mm 1 mps 638 mmHg 55%
    23:00 +19°C° 0 mm 1 mps 638 mmHg 54%

    23 July, Tuesday

    Time Temperature Precipitation Wind Pressure Humidity
    00:00 +19°C° 0 mm 1 mps 637 mmHg 53%
    01:00 +18°C° 0 mm 2 mps 637 mmHg 51%
    02:00 +18°C° 0 mm 2 mps 637 mmHg 50%
    03:00 +17°C° 0 mm 2 mps 636 mmHg 48%
    04:00 +19°C° 0 mm 1 mps 637 mmHg 49%
    05:00 +19°C° 0 mm 1 mps 637 mmHg 49%
    06:00 +20°C° 0 mm 1 mps 637 mmHg 50%
    07:00 +23°C° 0 mm 2 mps 638 mmHg 43%
    08:00 +25°C° 0 mm 2 mps 639 mmHg 37%
    09:00 +28°C° 0 mm 2 mps 640 mmHg 30%
    10:00 +28°C° 0 mm 2 mps 640 mmHg 29%
    11:00 +29°C° 0 mm 2 mps 640 mmHg 27%
    12:00 +30°C° 0 mm 2 mps 640 mmHg 26%
    13:00 +30°C° 0 mm 2 mps 639 mmHg 27%
    14:00 +29°C° 0 mm 2 mps 639 mmHg 29%
    15:00 +29°C° 0 mm 2 mps 638 mmHg 31%
    16:00 +28°C° 0 mm 2 mps 638 mmHg 37%
    17:00 +27°C° 0 mm 2 mps 637 mmHg 42%
    18:00 +25°C° 0 mm 1 mps 637 mmHg 48%
    19:00 +23°C° 0 mm 1 mps 636 mmHg 53%
    20:00 +21°C° 0 mm 1 mps 636 mmHg 58%
    21:00 +19°C° 0 mm 1 mps 636 mmHg 63%
    22:00 +19°C° 0 mm 1 mps 635 mmHg 61%
    23:00 +19°C° 0 mm 1 mps 635 mmHg 60%

    24 July, Wednesday

    Time Temperature Precipitation Wind Pressure Humidity
    00:00 +18°C° 0 mm 1 mps 635 mmHg 59%
    01:00 +18°C° 0 mm 1 mps 635 mmHg 58%
    02:00 +18°C° 0 mm 1 mps 634 mmHg 57%
    03:00 +18°C° 0 mm 1 mps 634 mmHg 57%
    04:00 +19°C° 0 mm 1 mps 634 mmHg 57%
    05:00 +19°C° 0 mm 1 mps 634 mmHg 58%
    06:00 +20°C° 0 mm 1 mps 635 mmHg 59%
    07:00 +22°C° 0 mm 1 mps 635 mmHg 52%
    08:00 +24°C° 0 mm 2 mps 636 mmHg 44%
    09:00 +27°C° 0 mm 2 mps 637 mmHg 36%
    10:00 +27°C° 0 mm 2 mps 637 mmHg 34%
    11:00 +28°C° 0 mm 2 mps 637 mmHg 32%
    12:00 +29°C° 0 mm 2 mps 637 mmHg 30%
    13:00 +29°C° 0 mm 3 mps 636 mmHg 31%
    14:00 +29°C° 0 mm 3 mps 636 mmHg 31%
    15:00 +28°C° 0 mm 3 mps 635 mmHg 32%
    16:00 +27°C° 0 mm 3 mps 635 mmHg 38%
    17:00 +26°C° 0 mm 2 mps 634 mmHg 44%
    18:00 +24°C° 0 mm 2 mps 633 mmHg 50%
    19:00 +21°C° 0 mm 2 mps 633 mmHg 54%
    20:00 +20°C° 0 mm 1 mps 632 mmHg 59%
    21:00 +18°C° 0 mm 1 mps 632 mmHg 63%
    22:00 +18°C° 0 mm 1 mps 632 mmHg 63%
    23:00 +16°C° 0 mm 1 mps 632 mmHg 63%
    Show more